Regional Weather Roundup
Issued by NWS

Home | Current Version | Previous Version | Text Only | Print | Product List | Glossary On
Versions: 1 2 3 4 5 6 7 8 9 10 11 12 13 14 15 16 17 18 19 20 21 22 23 24 25 26 27 28 29 30 31 32 33 34 35 36 37 38 39 40 41 42 43 44 45 46 47 48 49 50
000
ASUS45 KBOU 290810
RWRCO

WEATHER ROUNDUP FOR COLORADO
NATIONAL WEATHER SERVICE PUEBLO CO
200 AM MDT WED JUL 29 2015

NOTE: "FAIR" INDICATES FEW OR NO CLOUDS BELOW 12000 FEET WITH NO
SIGNIFICANT WEATHER AND/OR OBSTRUCTIONS TO VISIBILITY.

COZ001>005-013-030-031-290900-
...NORTHWEST COLORADO...

CITY           SKY/WX    TMP DP  RH WIND       PRES   REMARKS
CRAIG          CLEAR     49  36  61 E6        30.32S
HAYDEN         CLEAR     50  30  46 CALM      30.33S
MEEKER         CLEAR     50  34  54 E6        30.33S
MOUNT WERNER   NOT AVBL
STEAMBOAT SPGS FAIR      47  34  61 CALM      30.35S
WALDEN         FAIR      41  28  60 SE6       30.43S
$$

COZ006>008-011-290900-
...WEST CENTRAL VALLEYS...

CITY           SKY/WX    TMP DP  RH WIND       PRES   REMARKS
GRAND JUNCTION PTCLDY    64  29  26 CALM      30.16R
MONTROSE       PTCLDY    61  37  41 SE9       30.25S
EAGLE          CLEAR     54  36  50 SE3       30.35S
RIFLE          CLEAR     59  32  36 SE3       30.25R
DELTA          NOT AVBL
NUCLA          FAIR      59  34  38 CALM      30.28R
$$

COZ017>023-064>068-290900-
...SOUTHWEST COLORADO...

CITY           SKY/WX    TMP DP  RH WIND       PRES   REMARKS
DURANGO        MOCLDY    61  36  39 E8        30.27R
CORTEZ         CLEAR     51  40  65 CALM      30.22S
PAGOSA SPRINGS FAIR      67  35  31 CALM      30.36S
TELLURIDE      CLEAR     53  34  48 SE5       30.49S
WOLF CREEK PAS NOT AVBL
$$

COZ009-010-012-014-032>034-037-058>063-290900-
...CENTRAL COLORADO...

CITY           SKY/WX    TMP DP  RH WIND       PRES   REMARKS
ASPEN          CLEAR     48  36  63 VRB6      30.39S
BUENA VISTA    FAIR      51  37  58 W5        30.44R
COPPER MTN     CLEAR     50  34  53 SE12      30.68F
BERTHOUD PASS  FAIR      39  30  70 SE6       30.73F
COTTONWOOD PAS PTCLDY    55  34  44 CALM      30.56S
GUNNISON       PTCLDY    50  36  57 CALM      30.41S
KREMMLING      CLEAR     46  32  57 CALM      30.41S
LEADVILLE      CLEAR     46  34  62 NE5       30.54S
MONARCH PASS   MOCLDY    45  34  65 E6        30.79R
SALIDA         FAIR      62  40  43 SE3       30.48R
NIWOT RIDGE    NOT AVBL
SUNLIGHT       PTCLDY    52  28  40 NE3       30.62S
WILKERSON PASS CLEAR     45  36  70 S10G16    30.67S
$$

COZ069>075-290900-
...SAN LUIS VALLEY/SANGRE DE CRISTO MOUNTAINS...

CITY           SKY/WX    TMP DP  RH WIND       PRES   REMARKS
ALAMOSA        PTCLDY    59  48  67 SE9       30.34S
LA VETA PASS   PTCLDY    50  41  71 MISG      30.56S
SAGUACHE       MOCLDY    59  45  58 CALM      30.40S
$$

COZ035-036-038>040-290900-
...NORTHERN COLORADO FRONT RANGE...

CITY           SKY/WX    TMP DP  RH WIND       PRES   REMARKS
DENVER INTL AP PTCLDY    55  43  63 S9        30.29S
DMNS CITY PARK NOT AVBL
AURORA         PTCLDY    58  44  60 SE12      30.31R
FRONT RANGE AP NOT AVBL
ERIE MUNI ARPT FAIR      60  43  54 S3        30.26S
BOULDER MUN AP FAIR      63  43  48 W3        30.27F
CENTENNIAL     PTCLDY    61  45  55 SE14      30.31S
BROOMFIELD     CLEAR     64  37  36 NW7       30.30S
LOVELAND       CLEAR     64  43  45 NE3       30.28S
LONGMONT       FAIR      61  46  59 CALM      30.28S
$$

COZ041-046-047-076>085-087-088-290900-
...PIKES PEAK/PALMER DIVIDE AND SOUTHERN FOOTHILLS...

CITY           SKY/WX    TMP DP  RH WIND       PRES   REMARKS
COLO. SPRINGS  MOCLDY    64  42  44 E5        30.37R
A. F. ACADEMY  PTCLDY    58  42  54 CALM      30.37R
ELLICOTT       FAIR     N/A N/A N/A E7        30.34R
FALCON         FAIR      56  44  62 CALM      30.40R
FORT CARSON    CLOUDY    64  44  47 CALM      30.33R
LIMON          CLEAR     57  48  72 SW3       30.31R
MONUMENT HILL  CLEAR     50  41  71 SW5       30.40R
TRINIDAD       PTCLDY    64  48  56 SE3       30.27F
$$

COZ042>045-048>051-090-091-290900-
...NORTHEAST COLORADO...

CITY           SKY/WX    TMP DP  RH WIND       PRES   REMARKS
GREELEY ARPT   CLEAR     59  45  58 N3        30.26S
AKRON          PTCLDY    64  45  49 S9        30.26R
BURLINGTON     MOCLDY    64  54  69 CALM      30.25R
WRAY           FAIR      56  51  84 W3        30.23R
STERLING       NOT AVBL
HOLYOKE        FAIR      55  50  82 NW3       30.24R
FORT MORGAN    FAIR      61  42  48 CALM      30.26R
$$

COZ086-089-092>099-290900-
...SOUTHEAST COLORADO...

CITY           SKY/WX    TMP DP  RH WIND       PRES   REMARKS
PUEBLO         LGT RAIN  71  50  47 E15       30.24R
LA JUNTA       MOCLDY    67  51  56 E9        30.23R
LAMAR          CLOUDY    65  56  72 E5        30.22R
SPRINGFIELD      N/A     67  62  84 SE13      30.25
$$




USA.gov is the U.S. government's official web portal to all federal, state and local government web resources and services.